Skip Page Navigation
NASA JPL Caltech
NASA Logo - Jet Propulsion Laboratory + View the NASA Portal
+ Center for Near-Earth Object Studies
JPL Home Earth Solar System Stars & Galaxies Technology
JPL Solar System Dynamics
BODIES ORBITS EPHEMERIDES TOOLS PHYSICAL DATA DISCOVERY FAQ SITE MAP
JPL Small-Body Database Browser
Search: [ help ]  
49110 Kvetafialova (1998 SU2)
Classification: Main-belt Asteroid          SPK-ID: 2049110
Ephemeris | Orbit Diagram | Orbital Elements | Mission Design | Physical Parameters | Discovery Circumstances | Close-Approach Data ]

[ show orbit diagram ]
Orbital Elements at Epoch 2459000.5 (2020-May-31.0) TDB
Reference: JPL 20 (heliocentric ecliptic J2000)
 Element Value Uncertainty (1-sigma)   Units 
e .03980140384117153 4.0307e-08  
a 2.677984262899498 1.312e-08 au
q 2.571396729771533 1.0642e-07 au
i 1.686425154833694 4.6047e-06 deg
node 355.6482721622912 0.00012023 deg
peri 8.112872140457201 0.00013111 deg
M 346.0228244626599 5.023e-05 deg
tp 2459062.648031385963
(2020-Aug-01.14803139)
0.00022322 TDB
period 1600.7018899617
4.38
1.1764e-05
3.221e-08
d
yr
n .2249013400044237 1.6528e-09 deg/d
Q 2.784571796027463 1.3643e-08 au
  Orbit Determination Parameters
   # obs. used (total)      965  
   data-arc span      8097 days (22.17 yr)  
   first obs. used      1998-09-16  
   last obs. used      2020-11-16  
   planetary ephem.      DE431  
   SB-pert. ephem.      SB431-N16  
   condition code      0  
   norm. resid. RMS      .54181  
   source      ORB  
   producer      Otto Matic  
   solution date      2020-Dec-17 21:27:29  

Additional Information
 Earth MOID = 1.5682 au 
 Jupiter MOID = 2.38425 au 
 T_jup = 3.376 
[ show covariance matrix ]

Ephemeris | Orbit Diagram | Orbital Elements | Mission Design | Physical Parameters | Discovery Circumstances | Close-Approach Data ]

Physical Parameter Table
Parameter Symbol Value Units Sigma Reference Notes
absolute magnitude H 15.1   n/a MPO436127  

49110 Květafialová           Discovered 1998 Sept. 16 by P. Pravec and L. Šarounová at Ondřejov.
Květa Fialová (b. 1929) is a well-known actress in Czech-Slovak cinematography and theatre, who has been active for almost 70 years.
NOTE: some special characters may not display properly (any characters within {} are an attempt to place the proper accent above a character)
Reference: 20121228/MPCPages.arcLast Updated: 2013-01-02

[ show close-approach data ]
Ephemeris | Orbit Diagram | Orbital Elements | Mission Design | Physical Parameters | Discovery Circumstances | Close-Approach Data ]
ABOUT SSD CREDITS/AWARDS PRIVACY/COPYRIGHT GLOSSARY LINKS
FirstGov 2021-Jan-22 04:24 UT
(server date/time)  
NASA Home Page
Site Manager:   Ryan S. Park
Webmaster  Alan B. Chamberlin